Other Public Products
Issued by NWS Grand Forks, ND

Home | Current Version | Previous Version | Text Only | Print | Product List | Glossary Off
Versions: 1 2 3 4 5 6 7 8 9 10 11 12 13 14 15 16 17 18 19 20 21 22 23 24 25 26 27 28 29 30 31 32 33 34 35 36 37 38 39 40 41 42 43 44 45 46 47 48 49 50

160
FPUS83 KFGF 190110
OPUFGF
PRAIRIE TO PINES WEATHER ROUNDUP
NATIONAL WEATHER SERVICE EASTERN NORTH DAKOTA/GRAND FORKS ND
800 PM CDT MON SEP 18 2017

 **SATELLITE DATA USED TO AUGMENT SKY COVER AT AUTOMATED STATIONS**
 *****  WEATHER ACROSS EASTERN NORTH DAKOTA  *****

CITY           SKY/WX    TMP DP  RH WIND       PRES   REMARKS
GRAND FORKS    FAIR      62  58  86 SE12      29.82R
GRAND FORKS AF CLEAR     63  55  77 S10       29.84R
GRAND CITY NWS NOT AVBL
BUXTON         NOT AVBL
DEVILS LAKE    FAIR      57  51  80 E6        29.81F
FARGO          CLOUDY    64  57  78 SE10      29.83S
WAHPETON ARPT  FAIR      61  54  77 SE10      29.85R
$$

 *****  WEATHER ACROSS CENTRAL AND WESTERN NORTH DAKOTA  *****

CITY           SKY/WX    TMP DP  RH WIND       PRES   REMARKS
JAMESTOWN      FAIR      60  49  66 CALM      29.79S
BISMARCK       FAIR      63  52  67 E7        29.77F
MINOT          FAIR      62  48  60 E8        29.75S
MINOT AFB      FAIR      60  49  68 SE10      29.73F
GARRISON         N/A     62  50  64 SE8       29.75S
WILLISTON      FAIR      66  44  45 SE5       29.66F
DICKINSON      FAIR      65  43  44 SE12      29.70F
HETTINGER      FAIR      65  40  39 SE8       29.75S
$$

 *****  OTHER OBSERVATIONS NORTHEAST NORTH DAKOTA  *****

CITY           SKY/WX    TMP DP  RH WIND       PRES   REMARKS
WALHALLA       FAIR     N/A N/A N/A CALM      29.84R
LANGDON        CLOUDY    61  57  88 E8        29.84R
CAVALIER       CLOUDY    59  54  82 CALM      29.83R
GRAFTON        FAIR      57  55  94 E5        29.84S
CANDO          FAIR      55  55 100 SE7       29.82F
FORT TOTTEN      N/A     58  52  80 E2        29.95S
ROLLA          FAIR      57  52  82 SE8       29.81F
RUGBY          FAIR      57  54  88 E8        29.78F
 ***** THE ABOVE OBSERVATIONS ARE NON NWS ARE NOT QUALITY
        CONTROLLED AND MAY MIS-REPORT RAIN FOR SNOW...
$$

 *****  OTHER OBSERVATIONS SOUTHEAST NORTH DAKOTA *****

CITY           SKY/WX    TMP DP  RH WIND       PRES   REMARKS
COOPERSTOWN    FAIR      61  59  94 SE9       29.82R
VALLEY CITY    CLOUDY    64  63  94 SE12      29.82S
OAKES          NOT AVBL
GWINNER        CLEAR     64  61  88 E6        29.80S
SHEYENNE NWR     N/A     62  60  93 SE7       29.95S
BUFFALO        NOT AVBL
WYNDMERE       NOT AVBL
 ***** THE ABOVE OBSERVATIONS ARE NON NWS ARE NOT QUALITY
       CONTROLLED AND MAY MIS-REPORT RAIN FOR SNOW...
$$

  *****  WEATHER ACROSS NORTHERN MINNESOTA  *****

CITY           SKY/WX    TMP DP  RH WIND       PRES   REMARKS
FLAG ISLAND    FAIR      59  52  77 E5        29.89S
WARROAD        CLOUDY    57  54  88 E6        29.88S
ROSEAU         FAIR      57  54  88 NE3       29.87R
HALLOCK        MOCLDY    61  55  82 E9        29.83S
THF RVR FALLS  MOCLDY    61  54  77 S15       29.88R
HALSTAD        NOT AVBL
FOSSTON        CLOUDY    55  52  88 SE8       29.89S
BAUDETTE       FAIR      56  51  84 SE8       29.90R
WASKISH        CLOUDY    57  52  82 SE6       29.92R
CROOKSTON      FAIR      59  55  88 SE14      29.86R
$$
  *****  WEATHER ACROSS CENTRAL AND WEST MINNESOTA  *****

CITY           SKY/WX    TMP DP  RH WIND       PRES   REMARKS
BEMIDJI        CLOUDY    55  53  95 SE7       29.92S FOG
PARK RAPIDS    CLOUDY    58  54  86 SE9       29.91F
WADENA         CLOUDY    57  55  94 SE8       29.91S FOG
DETROIT LAKES  CLOUDY    57  55  94 SE10      29.90R
MOORHEAD       CLOUDY    63  55  77 SE9       29.85S
FERGUS FALLS   CLOUDY    61  57  88 SE7       29.87S
ELBOW LAKE     CLOUDY    60  57  91 E13       29.89R
MORRIS MN      FAIR      61  57  88 SE12      29.88R
STAPLES        CLOUDY    55  54  94 S8        29.93S
WHEATON        FAIR      63  57  82 SE9       29.86S
$$
  *****  WEATHER ELSEWHERE ACROSS MINNESOTA  *****

CITY           SKY/WX    TMP DP  RH WIND       PRES   REMARKS
DULUTH         CLOUDY    54  49  83 S10       30.00S
INTRNTL FALLS  FAIR      56  50  80 VRB7      29.94R
ELY            CLOUDY    55  48  76 SE6       30.00S
CLOQUET        CLOUDY    54  46  76 S6        30.00S
BRAINERD       CLOUDY    55  51  86 SE7       29.95R
HIBBING        CLOUDY    54  49  83 S7        29.98S
ALEXANDRIA     CLOUDY    57  56  96 SE12      29.92S FOG
SAINT CLOUD    CLOUDY    54  54 100 SE8       29.95R FOG
MINNEAPOLIS    CLOUDY    58  56  93 SE10      29.96S
$$

  *****  WEATHER ACROSS SOUTH DAKOTA  *****

CITY           SKY/WX    TMP DP  RH WIND       PRES   REMARKS
SIOUX FALLS    FAIR      69  64  84 SE6       29.85R
BROOKINGS      FAIR      64  59  83 SE8       29.85S
WATERTOWN      FAIR      64  60  87 SE6       29.84R
HURON          FAIR      72  61  68 SE12      29.79S
SISSETON         N/A     65  60  84 SE9       29.82S
ABERDEEN       FAIR      65  56  72 SE6       29.79S
MITCHELL       FAIR      71  62  73 SE9       29.82R
PIERRE         FAIR      67  54  63 SE9       29.74F
MOBRIDGE       FAIR      66  47  50 NE12      29.75S
RAPID CITY     CLEAR     66  43  42 E10       29.73F
$$

  *****  SOME WEATHER IN NEARBY STATES *****

CITY           SKY/WX    TMP DP  RH WIND       PRES   REMARKS
GLASGOW MT     CLOUDY    66  45  46 SE8       29.59F
GREAT FALLS MT CLOUDY    57  37  47 SW16      29.63R
CHEYENNE WY    FAIR      69  29  22 S10       29.94F
SCOTTSBLUFF NE FAIR      68  51  54 E8        29.81F
OMAHA NE       CLOUDY    73  66  78 E7        29.89R
DES MOINES IA  MOCLDY    69  66  90 SE6       29.93R
DAVENPORT IA   FAIR      69  64  84 SW3       29.97R
CHICAGO IL     MOCLDY    67  56  67 NE9       30.01S
EAU CLAIRE WI  CLOUDY    56  54  93 NE6       30.00F
LA CROSSE WI   FAIR      60  58  92 CALM      29.98F
$$

  *****  SOME NATIONAL WEATHER *****

CITY           SKY/WX    TMP DP  RH WIND       PRES   REMARKS
LA GUARDIA NY  MOCLDY    72  68  87 NE9       30.09S
RALEIGH NC     FAIR      72  66  81 NE5       30.01R
ATLANTA GA     FAIR      78  62  57 NW7       30.03R
NEW ORLEANS LA MOCLDY    84  73  69 S7        29.97R HX  90
OKLAHOMA CITY  FAIR      74  66  76 SE8       29.92S
ALBUQUERQUE NM FAIR      83  29  14 S7        30.02F
SALT LAKE CITY MOCLDY    80  35  19 S22G32    29.71F
LOS ANGELES CA FAIR      68  63  84 W13       29.90S
BOISE ID       MOCLDY    57  52  83 CALM      29.76F
SEATTLE WA     LGT RAIN  54  49  83 SE9       29.73F
$$

*** WEATHER ACROSS MANITOBA...SASKATCHEWAN AND ONTARIO ***
                ***ONTARIO***

CITY           SKY/WX    TMP DP  RH WIND       PRES   REMARKS
GERALDTON      MOCLDY    50  43  76 S7        30.06R
THUNDER BAY    MOCLDY    57  50  77 SE5       30.04S
SIOUX LOOKOUT  MOCLDY    52  48  87 E2        29.96S
TORONTO        MOCLDY    70  64  83 N12       30.04S
BIG TROUT LK   CLOUDY    45  37  76 W14G22    29.94R
PICKLE LAKE    PTCLDY    48  41  76 NW2       29.99R
DRYDEN         CLOUDY    59  48  67 S7        29.95S
KENORA         MOCLDY    59  48  67 SE5       29.93R
$$
                *** MANITOBA***

CITY           SKY/WX    TMP DP  RH WIND       PRES   REMARKS
BRANDON        PTCLDY    57  48  72 E9        29.80S
DAUPHIN        CLEAR     55  48  76 E9        29.81R
ISLAND LAKE    NOT AVBL
PILOT MOUND      N/A     55  50  82 E8          N/A
THE PAS        PTCLDY    48  37  66 SE5       29.85S
THOMPSON       MOCLDY    48  34  57 NE3       29.89R
WINNIPEG       MOCLDY    63  50  63 SE6       29.85S
LYNN LAKE      MOCLDY    52  39  62 E7        29.86S
CHURCHILL      MOCLDY    43  37  81 NE5       29.92R
GILLAM         MOCLDY    43  41  93 S5        29.93R
$$
                ***SASKATCHEWAN***

CITY           SKY/WX    TMP DP  RH WIND       PRES   REMARKS
ESTEVAN        MOCLDY    64  45  48 SE9       29.70S
KINDERSLEY     CLOUDY    61  39  44 E9        29.53S
LLOYDMINSTER   CLOUDY    55  43  62 E10       29.54S
PRINCE ALBERT  MOCLDY    57  39  51 E13       29.69S
REGINA         CLOUDY    68  36  30 SE15G21   29.61F
YORKTON        CLOUDY    61  48  63 E12G17    29.72S



USA.gov is the U.S. government's official web portal to all federal, state and local government web resources and services.